Tracking 28335 objects as of 4-Dec-2023
HD Live streaming from Space Station
objects crossing your sky now

NORSAT 3

Track NORSAT 3 now!
10-day predictions


NORAD ID: 48272
Int'l Code: 2021-034E
Perigee: 599.4 km
Apogee: 601.1 km
Inclination: 97.7 °
Period: 96.5 minutes
Semi major axis: 6971 km
RCS: Unknown
Launch date: April 29, 2021
Source: Norway (NOR)
Launch site: FRENCH GUIANA (FRGUI)
Your satellite tracking list
Your tracking list is empty




NASA's NSSDC Master Catalog

Two Line Element Set (TLE):
1 48272U 21034E   23338.15488001  .00004722  00000-0  47641-3 0  9999
2 48272  97.6867  41.3187 0001221 135.2024 224.9294 14.91556073141138
Source of the keplerian elements: AFSPC